Home > Weather > Mobile > Past weeks

Flag for USA Past Weather in Mobile, Alabama, USA — Yesterday and Last 2 Weeks

Now
79 °F

Clear.


Feels Like: 82 °F
Forecast: 75 / 93 °F
Wind: No wind

Location: Mobile Downtown Airport

Current Time: Jun 25, 2016 at 12:12:11 AM

Latest Report: Jun 24, 2016 at 10:53 PM


Visibility: 10 mi

Pressure: 30.08 "Hg

Humidity: 79%

Dew Point: 72 °F

Location of MobileLocation

Past Weather in Mobile — Graph

°F

Mobile Temperature Yesterday

Maximum temperature yesterday: 90 °F (at 1:53 PM)
Minimum temperature yesterday: 71 °F (at 2:53 AM)
Average temperature yesterday: 82 °F

High & Low Weather Summary for the Past Weeks

 TemperatureHumidityPressure
High94 °F (Jun 16, 2:53 PM)100% (Jun 11, 4:53 AM)30.27 "Hg (Jun 11, 4:53 AM)
Low68 °F (Jun 22, 4:53 AM)41% (Jun 23, 2:53 PM)29.87 "Hg (Jun 17, 5:53 PM)
Average81 °F77%30.07 "Hg
* Reported Jun 9 10:53 PM — Jun 24 10:53 PM, Mobile, Weather by CustomWeather, © 2016

Note: Actual official high and low records may vary slightly from our data, if they occured in-between our weather recording intervals... More about our weather records

Advertising

Mobile Weather History for the Previous 24 Hours

Scroll right to see more
 ConditionsComfort  
Time TempWeatherWind HumidityBarometerVisibility
10:53 PM
Fri, Jun 24
79 °FClear.No wind79%30.08 "Hg10 mi
9:53 PM80 °FClear.3 mph76%30.06 "Hg10 mi
8:53 PM81 °FSunny.No wind74%30.04 "Hg10 mi
7:53 PM84 °FSunny.3 mph67%30.04 "Hg10 mi
6:53 PM86 °FSunny.7 mph63%30.03 "Hg10 mi
5:53 PM89 °FSunny.10 mph59%30.03 "Hg10 mi
4:53 PM90 °FPassing clouds.9 mph59%30.05 "Hg10 mi
3:53 PM90 °FScattered clouds.7 mph56%30.06 "Hg10 mi
2:53 PM89 °FScattered clouds.9 mph57%30.08 "Hg10 mi
1:53 PM90 °FScattered clouds.9 mph56%30.10 "Hg10 mi
12:53 PM89 °FBroken clouds.9 mph59%30.12 "Hg10 mi
11:53 AM88 °FBroken clouds.6 mph57%30.14 "Hg10 mi
10:53 AM87 °FPartly sunny.6 mph59%30.15 "Hg10 mi
9:53 AM86 °FScattered clouds.8 mph63%30.15 "Hg10 mi
8:53 AM84 °FSunny.7 mph70%30.15 "Hg10 mi
7:53 AM80 °FSunny.5 mph76%30.12 "Hg10 mi
6:53 AM76 °FSunny.5 mph85%30.11 "Hg10 mi
5:53 AM72 °FClear.3 mph93%30.11 "Hg10 mi
4:53 AM72 °FClear.3 mph97%30.09 "Hg10 mi
3:53 AM71 °FClear.3 mph100%30.09 "Hg10 mi
2:53 AM71 °FClear.No wind96%30.10 "Hg10 mi
1:53 AM72 °FClear.No wind93%30.10 "Hg10 mi
12:53 AM72 °FClear.No wind93%30.09 "Hg10 mi
Weather by CustomWeather, © 2016

See weather overviewHow to use our weather pages